Regional Weather Roundup
Issued by NWS

Home | Current Version | Previous Version | Text Only | Print | Product List | Glossary On
Versions: 1 2 3 4 5 6 7 8 9 10 11 12 13 14 15 16 17 18 19 20 21 22 23 24 25 26 27 28 29 30 31 32 33 34 35 36 37 38 39 40 41 42 43 44 45 46 47 48 49 50
000
ASUS43 KDMX 240101
RWRIA

WEATHER ROUNDUP FOR IOWA
NATIONAL WEATHER SERVICE DES MOINES IA
700 PM CST THU FEB 23 2017

NOTE: "FAIR" INDICATES FEW OR NO CLOUDS BELOW 12,000 FEET WITH NO
SIGNIFICANT WEATHER AND/OR OBSTRUCTIONS TO VISIBILITY.

* - THESE STATIONS ARE NOT NWS STATIONS...THUS NOT UNDER NWS
QUALITY CONTROL.  THEY ALSO DO NOT REPORT WEATHER SUCH
AS PRECIPITATION OR FOG.

IAZ001>003-012>014-020>022-031>034-043>046-240200-
   NORTHWEST IOWA

CITY           SKY/WX    TMP DP  RH WIND       PRES   REMARKS
CARROLL *      CLOUDY    34  34 100 NE22G33   29.64F WCI  22
CHEROKEE *     TSTM      31  31  99 NE16G25   29.75R WCI  20
DENISON *      HVY RAIN  34  34 100 NE23G29   29.64R WCI  22
LE MARS *      MIX PCPN  30  30 100 NE20G30   29.75R VSB 3/4 WCI  18
ORANGE CITY *  LGT SNOW  30  28  93 NE13G23   29.75S VSB 3/4 WCI  20
SHELDON *      MIX PCPN  28  30 100 MISG      29.76R VSB 1/4
SIOUX CITY     LGT SNOW  33  30  88 NE22G32   29.69F VSB 1   WCI  21
SPENCER        LGT SNOW  31  29  92 NE25G33   29.76R FOG     WCI  17
STORM LAKE *   MIX PCPN  30  30 100 NE28G43   29.68F VSB 1   WCI  16
$$

IAZ055>058-069>071-079>083-090>094-240200-
   SOUTHWEST IOWA

CITY           SKY/WX    TMP DP  RH WIND       PRES   REMARKS
ATLANTIC *     CLOUDY    39  37  93 NE16G23   29.60R WCI  30
CLARINDA *     CLOUDY    45  39  81 NE17G23   29.55F
COUNCIL BLFS * LGT RAIN  37  37 100 NE17G29   29.58F WCI  28
CRESTON *      CLOUDY    43  39  87 NE17G25   29.57R
HARLAN  *      CLOUDY    37  37 100 NE18G26   29.64R WCI  27
LAMONI         CLOUDY    47  41  80 NE18G24   29.53F
RED OAK *      CLOUDY    41  39  93 NE22G32   29.56S
SHENANDOAH *   CLOUDY    43  39  87 NE20G26   29.53S
$$

IAZ047>049-059>061-072>074-084-240200-
   CENTRAL IOWA

CITY           SKY/WX    TMP DP  RH WIND       PRES   REMARKS
AMES           LGT RAIN  40  39  97 NE16G26   29.65R WCI  31
ANKENY *       CLOUDY    41  39  93 NE14      29.64S
BOONE *        LGT RAIN  37  37 100 NE22G31   29.64F WCI  27
CHARITON *     CLOUDY    45  43  93 NE14G21   29.57F FOG
DES MOINES     CLOUDY    44  40  85 NE17G23   29.61S
GRINNELL*      LGT RAIN  41  39  93 NE17G24   29.65F
KNOXVILLE *    CLOUDY    43  41  93 NE17      29.58R
MARSHALLTOWN   LGT RAIN  40  39  97 NE25G32   29.65S WCI  29
NEWTON *       CLOUDY    41  39  93 NE23G30   29.61S
PELLA *        CLOUDY    43  41  91 NE7G17    29.62R FOG
PERRY *        CLOUDY    39  38  94 NE17      29.64F WCI  30
$$

IAZ004>006-015-016-023>025-035-036-240200-
   NORTH CENTRAL IOWA

CITY           SKY/WX    TMP DP  RH WIND       PRES   REMARKS
ALGONA *       MIX PCPN  32  32 100 NE25G35   29.75R WCI  19
CLARION *      CLOUDY    34  34 100 NE21      29.74R FOG     WCI  22
ESTHERVILLE    LGT SNOW  29  29 100 NE29      29.74F FOG     WCI  14
FORT DODGE *   CLOUDY    34  28  80 NE16G22   29.70F WCI  23
MASON CITY     FLURRIES  34  31  88 NE25G32   29.76R WCI  21
FOREST CITY *  DRIZZLE   32  32 100 NE18G30   29.77R WCI  20
WEBSTER CITY * MIX PCPN  36  34  93 NE20G29   29.68F WCI  25
IOWA FALLS *   CLOUDY    39  36  88 NE18      29.71R WCI  29
$$

IAZ007>011-017>019-026>030-037>042-050>054-066-240200-
   NORTHEAST IOWA

CITY           SKY/WX    TMP DP  RH WIND       PRES   REMARKS
CEDAR RAPIDS   CLOUDY    42  41  96 E17       29.64S
CHARLES CITY * CLOUDY    37  37 100 NE20G25   29.74F WCI  27
CLINTON *      LGT RAIN  41  38  89 E22G31    29.69R
DECORAH *      CLOUDY    41  34  75 NE8G15    29.77R
DUBUQUE        CLOUDY    40  38  93 E16       29.72R WCI  31
MONTICELLO *   CLOUDY    41  39  93 E13G21    29.69S
OELWEIN *      CLOUDY    39  37  93 NE22G28   29.71F WCI  29
WATERLOO       CLOUDY    40  35  83 NE20      29.71F WCI  30
$$

IAZ064-065-067-068-078-240200-
   EAST CENTRAL IOWA

CITY           SKY/WX    TMP DP  RH WIND       PRES   REMARKS
DAVENPORT      LGT RAIN  42  39  89 E20G32    29.68R
IOWA CITY      CLOUDY    45  41  86 NE14G26   29.66R
MUSCATINE *    CLOUDY    48  45  87 E14G24    29.65S
QUAD CITIES    CLOUDY    46  40  79 E22       29.66R
$$

IAZ062-063-075>077-085>089-095>099-240200-
   SOUTHEAST IOWA

CITY           SKY/WX    TMP DP  RH WIND       PRES   REMARKS
BURLINGTON     CLOUDY    50  48  93 E12       29.60R
FAIRFIELD *    CLOUDY    46  45  93 NE15      29.59S
KEOKUK *       CLOUDY    50  48  93 NE8       29.56R
CENTERVILLE *  LGT RAIN  45  45 100 NE13      29.56F
OTTUMWA        LGT RAIN  46  44  93 NE14      29.59S
WASHINGTON *   CLOUDY    46  45  93 NE13      29.63R
$$

ABBREVIATIONS USED IN REMARKS
   TC - TEMPERATURES IN CELSIUS
  WCI - WIND CHILL INDEX
   HX - HEAT INDEX
  VSB - VISIBILITY
$$




USA.gov is the U.S. government's official web portal to all federal, state and local government web resources and services.